RH
52 50 28 27 33 36 35 35 35 34 33 32 28 26 26 27 25 25 23 18 24 28 28 32 34 35 33 32 27 28 40 42 45 46 38 38 30 34 45 56 55 39 12 13
51 51 30 38 38 38 38 35 33 32 30 31 32 30 30 29 26 30 30 26 26 31 29 32 32 34 32 25 25 28 34 40 46 47 35 37 32 35 41 49 57 44 14 24
51 46 41 40 41 40 37 40 39 36 36 35 37 36 35 36 21 30 31 28 27 32 28 31 35 34 30 23 23 24 37 45 40 46 39 34 31 30 34 46 54 37 15 36
46 43 43 41 44 44 43 42 38 35 35 47 46 57 49 28 22 20 27 34 30 29 31 27 33 35 32 27 24 37 45 49 36 43 33 31 29 31 37 47 48 22 18 40
40 40 39 39 38 38 40 41 37 36 42 49 50 53 45 40 37 27 39 47 29 30 34 31 36 33 34 33 41 39 41 39 34 36 30 28 29 32 37 48 43 14 26 44
39 30 38 36 35 38 40 46 51 52 49 56 43 57 60 59 41 39 45 68 49 32 35 31 31 32 37 35 33 39 37 34 34 36 32 26 30 33 41 48 40 15 38 54
39 39 41 42 37 39 43 53 68 58 61 60 44 54 55 64 77 78 74 77 58 44 41 36 32 38 38 47 44 32 29 30 30 35 27 26 28 34 46 51 31 16 39 53
25 28 24 29 44 45 50 50 64 73 70 59 46 51 62 82 100 95 98 88 61 55 46 45 40 39 39 39 57 44 41 34 34 32 30 27 28 41 52 50 25 18 39 60
68 49 32 43 39 48 51 50 47 55 54 60 48 38 83 88 89 99 80 68 60 59 57 65 59 51 45 43 44 52 43 44 41 40 33 30 32 44 55 60 23 18 33 59
61 71 49 49 52 51 48 37 52 59 91 81 47 70 95 94 76 93 90 77 64 48 54 59 60 60 62 44 72 72 66 58 51 48 36 31 36 52 60 63 20 17 29 52
37 58 63 63 49 55 49 52 50 52 65 87 86 76 98 74 73 80 90 72 72 60 52 51 57 63 73 68 95 99 96 88 57 50 38 34 40 52 60 60 18 18 24 40
43 50 60 56 44 41 69 60 58 60 65 65 67 86 88 78 82 86 79 64 69 71 57 51 66 72 72 72 79 86 83 93 90 70 46 40 40 53 58 55 18 17 24 33
54 66 80 44 32 39 72 94 94 87 76 96 90 74 75 63 95 98 99 71 74 88 90 62 53 51 56 62 61 62 72 85 92 97 92 48 51 61 62 49 22 18 22 27
66 64 62 85 69 74 91 84 92 95 98 98 90 73 72 72 96 99 98 75 81 80 93 97 96 76 63 54 56 65 68 83 91 97 72 60 57 57 58 52 31 20 18 22
77 84 85 82 55 62 78 87 78 91 94 98 79 86 77 76 90 99 95 81 67 87 82 94 98 98 98 99 85 79 76 86 98 99 80 90 64 61 68 55 33 22 20 23
82 79 81 71 57 73 64 58 63 56 96 74 85 96 100 98 100 90 80 78 75 94 87 88 93 99 99 99 98 100 100 98 100 100 100 99 79 73 78 63 35 25 22 24
46 73 85 76 64 86 76 51 39 41 94 76 88 96 93 83 64 80 79 97 89 86 91 90 94 90 100 100 100 100 100 100 100 99 99 100 100 99 96 74 46 35 29 26
63 82 88 92 67 92 46 45 60 84 97 98 98 98 79 50 43 60 79 100 95 98 98 99 97 94 96 100 100 100 96 100 100 99 100 100 94 100 100 88 57 64 41 37
95 83 95 86 86 71 42 88 98 88 98 99 94 73 60 48 43 55 98 100 100 95 99 99 98 99 95 97 100 100 100 100 100 100 100 100 99 99 99 99 80 63 63 70
80 89 92 89 95 94 92 92 99 98 98 95 75 59 49 45 55 56 46 97 100 93 93 98 99 98 100 99 99 99 98 100 100 100 100 100 100 100 100 100 100 99 100 100
80 84 91 85 78 90 95 94 96 95 99 82 66 58 50 46 40 41 50 100 100 91 94 94 97 98 98 100 99 96 96 96 96 98 97 98 99 98 99 99 100 100 100 100
74 78 76 82 94 96 85 78 79 99 100 64 50 65 66 70 75 95 100 99 98 95 97 96 98 98 98 100 100 100 98 99 96 95 97 96 96 98 98 94 99 98 98 97
96 97 94 90 96 96 100 99 100 100 93 68 67 83 92 91 97 96 96 97 97 98 97 96 97 97 96 98 100 98 97 94 97 97 97 96 97 98 95 97 96 97 94 96
92 94 97 94 98 96 96 93 93 100 100 96 90 94 90 86 90 95 95 95 96 96 97 98 98 98 93 95 96 96 96 94 94 95 94 94 96 94 94 96 96 96 96 97
86 85 96 97 97 96 99 99 99 99 100 100 97 95 93 89 91 93 95 96 96 96 97 96 96 96 96 97 92 95 94 94 93 92 91 91 92 95 94 85 78 81 84 91
82 81 86 100 100 100 97 96 97 98 97 96 96 93 90 90 93 94 95 96 96 96 96 96 96 96 96 96 96 93 90 89 92 93 91 90 89 94 86 85 83 81 79 78
Wind_Speed
10 13 18 14 13 14 18 21 26 30 31 31 34 35 32 28 30 34 40 32 39 39 34 26 23 26 26 32 44 38 41 34 33 28 29 30 27 22 21 22 21 24 22 22
14 22 11 8 12 22 28 28 28 32 30 27 33 37 34 31 34 36 39 38 39 32 36 34 31 28 30 34 40 38 37 36 32 28 30 28 27 23 23 24 22 26 23 22
17 19 16 20 19 21 24 23 26 30 31 32 30 41 34 30 30 31 32 33 29 34 30 30 33 24 27 33 40 37 38 35 34 31 29 30 28 25 25 23 25 26 23 20
18 20 21 22 25 20 27 22 25 27 29 26 23 24 34 38 33 25 32 30 22 20 28 28 31 26 25 28 34 35 34 32 34 33 30 28 26 23 24 23 25 23 21 17
19 14 13 19 27 25 29 24 26 25 28 31 31 25 38 37 37 31 24 26 32 16 17 26 23 28 25 26 32 36 35 33 37 33 29 27 25 25 25 22 23 20 19 17
23 20 21 24 19 19 22 20 20 24 25 15 39 17 18 18 21 20 20 6 11 26 28 29 29 31 31 29 31 32 30 31 33 34 29 26 26 25 24 20 20 18 16 17
20 24 23 24 24 20 16 15 5 4 5 9 14 14 14 22 13 6 14 5 11 16 25 28 28 31 36 31 35 36 34 31 30 32 26 26 27 26 21 19 16 16 14 14
23 26 19 22 31 23 12 19 9 4 3 11 34 6 10 32 19 5 7 22 12 12 20 23 26 31 36 32 36 35 31 28 29 31 26 24 26 25 21 17 14 14 12 12
11 18 16 5 21 23 19 21 27 28 26 15 13 21 5 17 28 19 7 7 14 14 19 17 23 26 30 27 34 36 31 28 28 31 29 23 25 24 20 15 13 14 10 11
11 18 17 16 11 18 20 18 9 9 4 5 7 3 3 24 25 14 11 11 8 12 19 21 22 19 17 25 36 36 33 31 28 31 31 24 25 26 19 16 13 12 9 10
13 10 22 19 13 15 20 24 22 19 13 3 4 4 7 17 15 14 13 14 11 8 13 19 26 24 17 21 28 24 24 29 26 29 26 24 26 27 19 16 13 12 9 8
15 12 19 30 32 22 21 25 23 22 10 14 9 6 9 11 12 8 12 16 14 10 10 17 25 24 20 21 18 17 17 22 20 25 28 28 27 26 21 17 14 12 9 8
14 6 13 19 24 20 12 17 18 18 21 22 10 5 10 19 8 12 12 16 13 12 9 14 21 25 25 22 21 23 24 25 24 26 25 29 29 28 23 19 16 13 12 10
15 19 21 14 22 23 27 29 19 20 9 13 17 8 6 3 11 9 9 13 11 9 9 4 11 22 25 27 28 27 26 25 30 33 28 33 32 31 27 21 19 17 14 12
12 20 21 26 30 31 28 29 25 25 25 10 10 8 4 4 5 7 9 14 14 8 12 8 7 13 14 19 22 21 22 20 23 34 29 33 34 33 27 23 20 18 16 13
14 17 21 29 23 31 28 28 28 28 17 19 18 14 3 5 7 7 13 13 11 5 11 9 9 8 14 13 15 16 19 21 24 25 28 32 32 32 27 23 23 20 20 17
29 22 17 18 22 15 18 27 23 25 15 11 9 7 1 3 2 4 7 7 8 11 12 12 8 6 10 17 16 18 17 22 24 24 26 27 27 30 29 28 25 24 23 22
26 23 19 21 24 6 8 13 17 15 9 14 15 6 6 7 7 7 7 6 7 12 15 15 13 9 12 15 20 25 15 25 29 26 27 24 23 30 31 33 31 28 27 25
29 28 15 8 12 19 16 4 4 17 11 7 8 8 7 8 9 8 7 6 9 9 13 14 12 11 12 11 14 21 26 28 26 27 33 31 28 30 32 34 35 33 30 28
10 17 22 9 4 4 19 24 6 9 10 7 7 6 8 9 11 9 10 5 9 11 13 12 11 9 8 7 6 11 17 20 28 28 33 33 40 40 38 34 34 34 34 30
11 14 22 20 6 7 17 17 6 6 4 6 10 10 11 12 10 11 9 8 9 8 11 7 5 8 6 6 6 5 4 7 7 9 15 15 19 22 31 27 37 37 37 34
10 7 11 14 7 2 15 15 15 9 3 7 12 13 13 12 7 5 5 6 6 7 5 6 5 4 3 1 2 3 2 1 3 4 2 1 1 3 6 10 12 21 21 19
3 10 12 8 6 5 12 12 8 3 4 7 10 10 10 10 7 4 3 2 2 3 3 3 3 4 3 4 4 5 6 7 8 7 8 7 4 4 1 3 3 3 7 6
15 12 8 5 9 10 16 13 10 7 5 6 7 8 9 9 10 9 9 7 5 3 2 2 3 6 4 3 3 4 5 7 7 6 6 6 5 5 3 1 4 4 3 3
19 15 11 11 9 7 9 10 10 7 7 8 9 9 9 9 10 9 8 7 6 5 2 2 2 2 2 3 3 3 4 3 3 3 2 2 2 2 2 2 2 4 7 9
20 19 11 4 4 3 5 7 7 8 7 6 7 7 8 7 7 6 6 6 6 6 5 3 1 2 3 3 2 1 2 2 3 3 4 4 4 5 5 5 4 6 8 9
Wind_Direction
261 249 248 259 261 272 277 271 279 287 289 297 288 288 284 274 278 283 276 271 255 247 235 234 236 239 240 243 224 233 235 239 247 237 237 233 243 252 258 268 283 292 282 273
235 253 270 281 260 266 265 270 276 281 286 290 292 289 286 278 273 276 280 282 274 265 238 232 229 221 234 217 224 229 234 240 246 251 236 233 242 252 261 266 281 290 286 275
242 255 289 267 259 255 261 273 282 285 293 289 291 285 284 289 270 276 278 288 270 262 254 231 217 219 225 222 227 233 227 230 248 250 238 231 240 251 261 270 280 289 290 275
263 263 264 263 251 262 268 279 282 286 293 285 288 295 284 282 283 278 289 272 245 259 246 227 219 214 220 226 227 222 225 230 249 243 232 234 244 255 261 268 280 292 295 265
257 251 267 260 258 263 275 277 277 283 291 293 286 275 283 290 284 289 284 273 247 243 247 233 210 214 226 237 226 226 231 239 252 231 227 236 244 251 259 270 286 294 288 253
251 263 258 253 260 258 268 287 274 277 274 276 276 273 315 328 282 268 243 163 183 221 216 211 220 219 213 238 233 229 234 245 241 227 231 239 240 247 255 270 287 297 274 241
294 284 272 258 249 256 268 274 303 289 231 245 275 284 280 314 282 235 218 224 192 187 197 209 216 210 212 219 230 236 240 244 238 229 232 230 235 239 249 267 290 296 266 248
293 281 285 273 240 231 252 235 215 268 285 302 301 277 278 298 17 246 241 244 235 199 200 208 214 212 219 224 222 228 231 237 230 226 229 227 231 233 242 265 291 291 264 246
334 283 262 323 235 223 238 249 253 250 273 282 268 272 250 329 298 325 35 249 260 246 217 204 210 218 227 228 229 225 228 230 228 228 230 229 232 232 241 266 284 278 263 249
323 308 267 255 255 231 237 260 266 248 294 265 281 338 311 349 349 324 337 0 318 268 230 217 220 223 221 219 209 212 217 222 220 222 230 232 230 232 240 261 272 275 267 249
324 311 280 270 267 268 254 241 245 256 240 244 300 309 8 4 357 359 12 353 340 291 233 226 226 227 215 211 203 205 214 213 220 227 222 227 230 231 241 257 263 265 266 253
313 300 293 285 261 265 257 259 258 250 241 240 278 287 333 352 344 320 355 355 347 342 239 215 218 225 220 225 223 219 217 225 229 226 223 227 235 233 239 248 254 260 265 260
300 282 316 298 276 267 252 285 286 276 265 248 243 269 319 312 301 273 323 347 355 355 335 219 209 218 231 229 233 234 228 231 220 224 235 224 224 229 234 241 245 250 253 257
300 283 269 261 272 303 306 305 310 303 281 288 208 238 276 330 262 237 301 342 348 357 348 302 235 219 224 228 228 230 231 231 228 240 230 223 222 229 228 237 244 248 251 259
295 281 287 283 279 285 281 294 299 304 296 286 278 311 273 282 250 256 332 344 331 354 360 355 247 236 237 243 237 237 235 226 224 220 226 231 232 232 231 232 240 246 250 247
266 281 303 284 293 273 272 285 283 285 275 294 264 261 159 154 194 342 321 332 335 326 360 358 355 240 228 247 250 240 221 219 212 219 220 235 239 239 235 234 239 239 240 240
276 278 287 286 298 289 258 263 273 266 263 271 229 229 184 118 326 301 322 12 21 12 10 5 354 332 232 223 231 222 236 223 226 226 229 232 243 247 240 232 233 237 236 235
265 263 268 279 297 246 236 267 262 175 101 108 92 93 28 27 14 352 349 354 348 355 351 353 1 353 344 234 217 221 228 229 228 235 230 227 240 244 244 235 232 230 233 233
255 247 245 253 278 293 300 292 19 207 93 83 28 358 6 350 343 349 349 342 344 337 341 337 342 356 13 336 236 222 208 217 235 230 239 220 248 229 238 239 234 232 229 230
223 227 217 269 358 310 317 324 160 174 93 42 31 14 353 336 310 311 325 307 319 322 321 323 317 328 351 354 340 263 236 215 210 212 215 215 227 227 220 227 229 225 225 221
172 199 218 236 258 267 325 329 135 126 77 13 10 357 345 325 301 298 308 308 300 306 304 331 331 292 282 307 314 310 291 272 246 205 217 210 214 208 212 199 212 217 212 212
182 204 229 246 222 329 4 41 91 93 57 14 2 359 352 349 345 345 326 301 296 294 307 295 293 274 253 259 276 273 286 343 299 285 26 45 103 272 241 253 218 207 206 218
38 45 86 72 96 1 30 50 74 73 325 343 8 14 17 24 29 17 347 346 19 349 334 284 217 187 165 142 153 135 137 118 100 106 103 90 62 72 151 203 234 215 231 192
38 55 103 53 58 49 40 45 42 31 28 34 52 53 49 51 51 51 47 37 23 358 303 242 188 186 178 126 95 103 97 96 75 77 67 67 84 70 71 74 64 43 28 274
23 29 89 90 46 34 29 54 64 53 69 76 70 64 62 58 50 42 42 43 40 25 345 257 220 191 198 159 116 112 93 85 86 77 79 110 152 188 186 210 211 225 221 234
14 15 16 2 339 28 51 68 78 78 79 72 66 56 52 45 45 38 35 31 37 40 24 7 343 228 186 121 72 342 304 284 282 282 268 264 256 231 236 242 230 224 222 226